STARLINK-2322, 47791

Orbit data source: Space-Track

STARLINK-2322, 47791 is a payload satellite owned by SpaceX/Seattle (US) in LEO that was launched on Thu, 11 Mar 2021 UTC via an FALCON 9 launch vehicle from the Air Force Eastern Test Range (AFETR). Payload-class satellites include a variety of spacecraft equipped with specific instruments for various scientific and technological missions. These include communications satellites like Starlink; space stations such as the ISS; scientific satellites like the Hubble; Earth observation satellites from companies like Planet Labs, Umbra, and HawkEye 360; GPS; miniature CubeSats for education and research; and military/defense satellites.

Loading next visibility...
Identifier
47791, 2021-018E
Orbit
LEO
Country
Flag of USUS
Related business
Manufacturer
SpaceX/Seattle
Mission
Operational Commercial Communications
Bus & Motor
STARLINK, Unknown motor
Mass
260 kg wet, ~248 kg dry
Launch date (UTC)
2021-03-11 (5 years ago)
Launch vehicle
FALCON 9
Launch site
Air Force Eastern Test Range (AFETR)
Object type
Payload
Rocket body
Debris
Shape & HBR
Box + 1 Pan, 10.1 m
Radar Cross Section
13.562 m², Large (>1 m²)

Expand to show TLE details & history
Last TLE update: 10 hours ago

TLE from 10 hours ago
0 STARLINK-2322
1 47791U 21018E   26120.05424399  .00007969  00000-0  26820-3 0  9999
2 47791  53.1609   4.1429 0000970  80.6162 279.4949 15.31709776284603
Epoch: 2026-04-30T01:18Z
TLE epoch observation values (Epoch: 2026-04-30T01:18:06.680Z)
Latitude
-0.00004°
Longitude
126.60867°
Altitude
471.502 km
Speed
7.632 km/s
True Right ascension
00h 16m 34s
True Declination
0° 00' 00"
Sunlit
Object was in daylight at epoch
Visualization orbit readout
Latitude
Unknown
Longitude
Unknown
Altitude
Unknown
Speed
Unknown
Apparent Right ascension
Unknown
Apparent Declination
Unknown
Sunlit
N/A
Visualization observer readout
Local Sidereal Time
19:00:35
Azimuth
Unknown
Elevation
Unknown
Doppler factor
Unknown
Orbital elements
Apogee altitude
471.632 km
Perigee altitude
470.303 km
Semi-major axis
6,849.104 km
Eccentricity
0.0001
Inclination
53.1609°
RAAN
4.1429°
Arg. of periapsis
80.6162°
True anomaly
279.48394°
Mean anomaly
279.4949°
Eccentric anomaly
279.48942°
Mean motion
3.82906 °/min
Orbital period
94.02 mins
BSTAR
0.0002682
Loading maneuver chart data...
Computing Atmospheric mass density...
Loading historical data...
Loading historical data...
Loading historical data...
Loading historical data...
Loading historical data...
Loading historical data...
Loading historical data...

Documentation

Showing up to 5 results
|